[[{"header":{"parameterUnit":"m.s-1","parameterCategory":1,"la1":30.2991,"la2":30.254,"lo1":-89.0895,"lo2":-89.0444,"dy":0.0017,"dx":0.0017,"nx":28,"ny":28,"refTime":"2025-08-14T21:00:00:Z","depth":0,"parameterNumber":2,"parameterNumberName":"U-component_of_WINDS"},"data":[0,0,0,0,0,0,0,0,0,0,0,0,0,0,0,0,0,0,0,0,0,0,0,0,0,0,0,0,0,0,0,0,0,0,0,0,0,0,0,0,0,0,0,0,0,0,0,0,0,0,0,0,0,0,0,0,0,0,2.9019,2.9019,0,2.9082,2.9082,2.9083,2.901,2.9007,2.9004,2.9002,2.9067,2.9071,2.9075,0,0,0,0,0,0,0,0,0,0,0,0,0,2.8835,2.8839,2.9019,2.9019,2.902,2.9081,2.9082,2.9083,2.901,2.9007,2.9004,2.9,2.9065,2.907,2.9075,0,0,0,0,0,0,0,0,0,0,0,0,0,2.8908,2.884,2.9018,2.8991,2.8989,2.9081,2.9082,2.9083,2.9011,2.9007,2.9003,2.8999,2.9063,2.907,2.9076,2.9198,0,0,2.9096,2.9098,0,0,0,0,0,0,0,0,2.8904,2.8915,2.8994,2.8993,2.8991,2.9034,2.9041,2.9122,2.9012,2.9003,2.9002,2.8997,2.9059,2.9065,2.9086,2.9201,2.9204,2.9096,2.91,2.9103,2.9105,0,0,0,0,0,0,0,2.8899,2.8912,2.9043,2.8996,2.8994,2.8976,2.8982,2.9056,2.9053,2.9003,2.8998,2.9006,2.9057,2.908,2.9087,2.9205,2.9096,2.9102,2.9106,2.9108,2.9422,2.9426,0,0,0,0,0,0,2.8897,2.8908,2.9041,2.9045,2.8937,2.8982,2.8989,2.9024,2.9052,2.9052,2.901,2.9003,2.9071,2.908,2.9089,2.9233,2.9103,2.9109,2.9113,2.9417,2.9423,2.9428,0,0,0,0,0,0,2.8894,2.891,2.9039,2.8975,2.899,2.899,2.903,2.9028,2.905,2.9057,2.9056,2.9034,2.9068,2.908,2.9171,2.9234,2.9112,2.9118,2.9412,2.9419,2.9425,2.9523,0,0,0,0,0,0,2.8889,2.8909,2.8955,2.8977,2.8994,2.912,2.9034,2.9032,2.9062,2.9053,2.908,2.908,2.9066,2.9162,2.9178,2.9241,2.9123,2.9406,2.9415,2.9423,2.9514,2.9532,2.9547,0,0,0,0,0,2.8882,2.8981,2.8958,2.8975,2.9052,2.9124,2.9134,2.9116,2.9067,2.9114,2.9118,2.9079,2.9225,2.9172,2.9189,2.9255,2.9402,2.9413,2.9422,2.9506,2.9528,2.9547,0,0,0,0,0,0,2.8967,2.8983,2.8958,2.9066,2.9094,2.9111,2.917,2.914,2.9182,2.9172,2.9148,2.9155,2.9252,2.9262,2.9203,2.9374,2.9306,2.932,2.9364,2.9385,2.9401,2.9396,2.9128,0,0,0,0,0,2.8998,2.9055,2.9066,2.916,2.9176,2.9171,2.9201,2.9185,2.9213,2.9224,2.9235,2.9264,2.9316,2.9351,2.9399,2.9515,2.9519,2.9569,2.9586,2.9599,2.9612,2.9673,2.9695,2.9461,2.9461,2.946,0,0,2.9063,2.9079,2.9116,2.9178,2.9197,2.9257,2.9181,2.9247,2.9291,2.9234,2.9321,2.933,2.936,2.9464,2.951,2.9476,2.9677,2.9612,2.9623,2.9628,2.9685,2.9707,2.9727,2.9468,2.9466,2.9465,0,0,2.9211,2.923,2.931,2.9331,2.9362,2.9357,2.9377,2.9399,2.9402,2.9489,2.9447,2.9499,2.959,2.9613,2.9636,2.9794,2.9759,2.981,2.9898,2.9957,2.9976,2.9992,3.0047,3.0067,2.9822,2.9823,2.9823,0,2.9288,2.9376,2.9355,2.9424,2.9452,2.9403,2.9484,2.9506,2.9551,2.9571,2.9532,2.9645,2.9662,2.977,2.9808,2.9829,2.985,2.9807,2.9975,2.9991,3.0006,3.0058,3.0079,2.9828,2.9828,2.9827,2.9827,0,2.9469,2.953,2.9591,2.9636,2.9671,2.9746,2.9735,2.9773,2.9754,2.9754,2.9842,2.9861,2.9912,2.9936,2.9918,3.0042,3.002,2.9979,2.9909,3.0034,3.0083,3.0103,2.9837,2.9835,2.9833,2.9832,0,0,2.9672,2.9704,2.9726,2.9745,2.9776,2.9823,2.9895,2.9945,2.9977,3.001,3.007,3.0148,3.0109,3.0136,3.012,3.0173,3.0295,3.0125,3.0125,3.0155,3.0432,3.0462,3.0486,3.0273,3.0277,3.028,3.0429,0,2.9821,2.9946,2.9928,3.0048,3.0105,3.0059,3.0122,3.0147,3.0149,3.0197,3.0199,3.0254,3.02,3.0216,3.0266,3.027,3.035,3.0259,3.0328,3.033,3.0321,3.0511,3.0544,3.0683,3.0448,3.0451,3.0453,0,3.001,3.005,3.0175,3.0196,3.0219,3.0276,3.0319,3.0366,3.0394,3.0391,3.0421,3.0396,3.0468,3.0397,3.0496,3.0434,3.0461,3.0468,3.0473,3.0478,3.0399,3.0521,3.0727,3.0748,3.0483,3.0481,3.0479,0,3.0145,3.023,3.0315,3.0333,3.036,3.0401,3.0414,3.0437,3.0468,3.0506,3.0526,3.0572,3.0598,3.0634,3.0622,3.0572,3.0723,3.0652,3.0722,3.0723,3.0756,3.0754,3.0969,3.0775,3.0774,3.0774,3.0774,0,3.0312,3.0391,3.0376,3.0429,3.0515,3.0495,3.0581,3.0588,3.0609,3.0662,3.0626,3.0677,3.0658,3.0707,3.0698,3.0781,3.0793,3.0792,3.0789,3.0795,3.0795,3.0812,3.0802,3.078,3.0778,3.0777,3.0776,0,3.0477,3.0471,3.0561,3.0579,3.0585,3.0648,3.0663,3.0712,3.0711,3.0779,3.0793,3.0792,3.0848,3.0839,3.0902,3.0896,3.0999,3.0984,3.0989,3.0985,3.1056,3.105,3.129,3.132,3.1107,3.1109,3.1111,0,3.0584,3.0643,3.0667,3.07,3.0716,3.0769,3.08,3.0782,3.0816,3.0852,3.0897,3.095,3.0991,3.1083,3.1087,3.1135,3.112,3.1201,3.1127,3.1131,3.112,3.1117,3.1122,3.1216,3.1218,3.122,3.1222,0,3.0774,3.0768,3.0814,3.0859,3.0897,3.0931,3.0962,3.0991,3.0976,3.1016,3.1073,3.1105,3.1168,3.1221,3.1266,3.1279,3.1248,3.1245,3.1263,3.127,3.1271,3.127,3.1028,3.1239,3.1238,3.1236,3.1235,3.1235,3.0913,3.0963,3.0987,3.1039,3.1061,3.109,3.1137,3.1142,3.1189,3.1239,3.1226,3.129,3.1315,3.1372,3.139,3.144,3.141,3.1437,3.1444,3.1451,3.1459,3.1264,3.1448,3.1447,3.1447,3.1446,3.1446,0,3.11,3.1113,3.1161,3.1206,3.1247,3.1214,3.1246,3.1283,3.134,3.1366,3.1407,3.1472,3.1523,3.1532,3.158,3.1618,3.1605,3.1631,3.1628,3.1631,3.1483,3.1462,3.1641,3.1641,3.1641,3.1641,3.1641,3.1641,3.1202,3.1285,3.1281,3.1374,3.1387,3.1449,3.1471,3.1498,3.1518,3.1592,3.1634,3.1639,3.1658,3.1707,3.1753,3.1754,3.1773,3.1804,3.18,3.1661,3.1642,3.1623,3.1603,3.1809,3.1809,3.1944,3.1945,3.1946]},{"header":{"parameterUnit":"m.s-1","parameterCategory":1,"la1":30.2991,"la2":30.254,"lo1":-89.0895,"lo2":-89.0444,"dy":0.0017,"dx":0.0017,"nx":28,"ny":28,"refTime":"2025-08-14T21:00:00:Z","depth":0,"parameterNumber":3,"parameterNumberName":"V-component_of_WINDS"},"data":[0,0,0,0,0,0,0,0,0,0,0,0,0,0,0,0,0,0,0,0,0,0,0,0,0,0,0,0,0,0,0,0,0,0,0,0,0,0,0,0,0,0,0,0,0,0,0,0,0,0,0,0,0,0,0,0,0,0,-0.051,-0.051,0,-0.0501,-0.0501,-0.0501,-0.0503,-0.0503,-0.0503,-0.0503,-0.0493,-0.0493,-0.0493,0,0,0,0,0,0,0,0,0,0,0,0,0,-0.0528,-0.0528,-0.051,-0.051,-0.051,-0.0502,-0.0501,-0.0501,-0.0503,-0.0503,-0.0503,-0.0503,-0.0494,-0.0493,-0.0493,0,0,0,0,0,0,0,0,0,0,0,0,0,-0.052,-0.0528,-0.051,-0.051,-0.051,-0.0502,-0.0501,-0.0501,-0.0503,-0.0503,-0.0503,-0.0503,-0.0494,-0.0493,-0.0493,-0.0484,0,0,-0.0491,-0.049,0,0,0,0,0,0,0,0,-0.0521,-0.0519,-0.051,-0.051,-0.051,-0.0503,-0.0504,-0.0495,-0.0503,-0.0505,-0.0503,-0.0503,-0.0497,-0.0496,-0.0494,-0.0484,-0.0483,-0.0491,-0.049,-0.049,-0.049,0,0,0,0,0,0,0,-0.0521,-0.052,-0.0507,-0.051,-0.051,-0.051,-0.0509,-0.0503,-0.05,-0.0505,-0.0505,-0.0504,-0.0496,-0.0494,-0.0493,-0.0483,-0.0491,-0.049,-0.049,-0.0489,-0.0467,-0.0467,0,0,0,0,0,0,-0.0522,-0.052,-0.0507,-0.0506,-0.0516,-0.0509,-0.0508,-0.0505,-0.05,-0.0499,-0.0504,-0.0504,-0.0495,-0.0494,-0.0493,-0.0484,-0.049,-0.0489,-0.0489,-0.0468,-0.0467,-0.0467,0,0,0,0,0,0,-0.0522,-0.0521,-0.0507,-0.0513,-0.0512,-0.0509,-0.0505,-0.0505,-0.0502,-0.0499,-0.0498,-0.0502,-0.0495,-0.0494,-0.0487,-0.0483,-0.0489,-0.0489,-0.0468,-0.0468,-0.0467,-0.0464,0,0,0,0,0,0,-0.0523,-0.0521,-0.0517,-0.0513,-0.0511,-0.0501,-0.0505,-0.0505,-0.0502,-0.0502,-0.0497,-0.0496,-0.0495,-0.0488,-0.0486,-0.0482,-0.0488,-0.0468,-0.0468,-0.0467,-0.0465,-0.0464,-0.0463,0,0,0,0,0,-0.0523,-0.0516,-0.0517,-0.0516,-0.0507,-0.0501,-0.05,-0.0499,-0.0501,-0.0498,-0.0496,-0.0497,-0.0484,-0.0487,-0.0485,-0.0481,-0.0468,-0.0468,-0.0467,-0.0465,-0.0464,-0.0463,0,0,0,0,0,0,-0.0519,-0.0516,-0.0517,-0.0508,-0.0505,-0.0501,-0.0497,-0.0498,-0.0493,-0.0494,-0.0493,-0.0491,-0.0484,-0.0482,-0.0485,-0.0474,-0.0477,-0.0476,-0.0475,-0.0474,-0.0474,-0.0474,-0.0488,0,0,0,0,0,-0.0518,-0.0513,-0.051,-0.0503,-0.0501,-0.0499,-0.0497,-0.0496,-0.0493,-0.0491,-0.0489,-0.0485,-0.048,-0.0477,-0.0473,-0.0465,-0.0464,-0.0461,-0.046,-0.046,-0.0459,-0.0455,-0.0454,-0.0466,-0.0466,-0.0466,0,0,-0.0514,-0.0511,-0.0508,-0.0502,-0.0499,-0.0495,-0.0498,-0.0493,-0.0489,-0.049,-0.0484,-0.0482,-0.0478,-0.047,-0.0467,-0.0468,-0.0456,-0.0459,-0.0459,-0.0458,-0.0455,-0.0454,-0.0453,-0.0465,-0.0465,-0.0465,0,0,-0.0504,-0.0502,-0.0496,-0.0494,-0.049,-0.0489,-0.0488,-0.0484,-0.0483,-0.0477,-0.0478,-0.0474,-0.0466,-0.0463,-0.0461,-0.0452,-0.0453,-0.0451,-0.0447,-0.0443,-0.0442,-0.0442,-0.0439,-0.0438,-0.045,-0.045,-0.045,0,-0.0499,-0.0492,-0.0493,-0.0487,-0.0485,-0.0487,-0.0481,-0.0479,-0.0474,-0.0472,-0.0474,-0.0465,-0.0462,-0.0454,-0.0453,-0.045,-0.0449,-0.0451,-0.0442,-0.0442,-0.0441,-0.0438,-0.0437,-0.045,-0.045,-0.045,-0.045,0,-0.0487,-0.0483,-0.0478,-0.0474,-0.0472,-0.0466,-0.0466,-0.0463,-0.0463,-0.0462,-0.0456,-0.0454,-0.0449,-0.0447,-0.0447,-0.044,-0.0441,-0.0443,-0.0446,-0.044,-0.0437,-0.0436,-0.0449,-0.0449,-0.045,-0.045,0,0,-0.0474,-0.0471,-0.0469,-0.0468,-0.0465,-0.0461,-0.0457,-0.0453,-0.0451,-0.0448,-0.0444,-0.0438,-0.044,-0.0437,-0.0437,-0.0434,-0.0428,-0.0436,-0.0436,-0.0435,-0.0421,-0.042,-0.0419,-0.0429,-0.0429,-0.0429,-0.0421,0,-0.0464,-0.0456,-0.0456,-0.0448,-0.0444,-0.0447,-0.0443,-0.0441,-0.044,-0.0437,-0.0436,-0.0432,-0.0435,-0.0433,-0.043,-0.0429,-0.0425,-0.043,-0.0425,-0.0425,-0.0426,-0.0417,-0.0416,-0.0409,-0.042,-0.042,-0.042,0,-0.0451,-0.0448,-0.044,-0.0439,-0.0438,-0.0434,-0.0431,-0.0428,-0.0426,-0.0426,-0.0424,-0.0425,-0.042,-0.0424,-0.0418,-0.0421,-0.042,-0.0419,-0.0419,-0.0418,-0.0422,-0.0416,-0.0407,-0.0406,-0.0419,-0.0419,-0.0419,0,-0.0442,-0.0437,-0.0432,-0.043,-0.0429,-0.0426,-0.0425,-0.0424,-0.0422,-0.042,-0.0418,-0.0415,-0.0414,-0.0412,-0.0412,-0.0414,-0.0406,-0.041,-0.0406,-0.0406,-0.0404,-0.0404,-0.0394,-0.0403,-0.0403,-0.0403,-0.0403,0,-0.0431,-0.0426,-0.0428,-0.0424,-0.0419,-0.0421,-0.0416,-0.0415,-0.0414,-0.0411,-0.0413,-0.041,-0.0411,-0.0408,-0.0408,-0.0404,-0.0403,-0.0403,-0.0403,-0.0403,-0.0403,-0.0401,-0.0402,-0.0403,-0.0403,-0.0403,-0.0403,0,-0.042,-0.0421,-0.0416,-0.0415,-0.0415,-0.0411,-0.0411,-0.0408,-0.0408,-0.0404,-0.0404,-0.0404,-0.0401,-0.0401,-0.0398,-0.0398,-0.0393,-0.0393,-0.0393,-0.0394,-0.039,-0.0391,-0.0379,-0.0377,-0.0388,-0.0387,-0.0387,0,-0.0413,-0.0409,-0.0409,-0.0407,-0.0407,-0.0404,-0.0402,-0.0404,-0.0402,-0.04,-0.0398,-0.0395,-0.0393,-0.0389,-0.0389,-0.0386,-0.0387,-0.0383,-0.0386,-0.0387,-0.0387,-0.0387,-0.0387,-0.0382,-0.0382,-0.0382,-0.0382,0,-0.04,-0.0401,-0.0399,-0.0397,-0.0395,-0.0394,-0.0393,-0.0391,-0.0393,-0.0391,-0.0388,-0.0387,-0.0384,-0.0382,-0.038,-0.0379,-0.0381,-0.0381,-0.038,-0.0379,-0.038,-0.038,-0.0392,-0.0381,-0.0381,-0.0381,-0.0381,-0.0381,-0.0391,-0.0388,-0.0388,-0.0386,-0.0385,-0.0384,-0.0382,-0.0382,-0.038,-0.0378,-0.038,-0.0377,-0.0376,-0.0374,-0.0374,-0.0372,-0.0373,-0.0372,-0.0371,-0.0371,-0.0371,-0.038,-0.0371,-0.0371,-0.0371,-0.0371,-0.0371,0,-0.0378,-0.0379,-0.0377,-0.0375,-0.0374,-0.0376,-0.0376,-0.0374,-0.0372,-0.0371,-0.037,-0.0367,-0.0365,-0.0366,-0.0364,-0.0363,-0.0364,-0.0362,-0.0362,-0.0362,-0.0369,-0.037,-0.0362,-0.0362,-0.0362,-0.0362,-0.0362,-0.0362,-0.0372,-0.0368,-0.0369,-0.0365,-0.0365,-0.0363,-0.0362,-0.0362,-0.0362,-0.0359,-0.0358,-0.0358,-0.0358,-0.0357,-0.0356,-0.0356,-0.0355,-0.0354,-0.0354,-0.0361,-0.0362,-0.0362,-0.0363,-0.0354,-0.0354,-0.0347,-0.0347,-0.0347]}]]